Location: Christian Reformed Church
(43.0975°N, 93.8113°W)
Time: 04:07:57
(UTC+00:00)

Okean 1-7 Rocket - Pass Details

Date: 13 December 2025
Orbit: 610 x 644 km, 82.5° (Epoch: 13 January)

Event Time Altitude Azimuth Distance (km) Brightness Sun altitude
Rises 12:08:27 0° 175° (S) 2,928 7.3 -15.8°
Reaches altitude 10° 12:10:43 10° 171° (S) 2,020 6.5 -15.4°
Maximum altitude 12:15:05 54° 94° (E) 770 4.4 -14.6°
Drops below altitude 10° 12:19:27 10° 17° (NNE) 2,017 6.2 -13.9°
Sets 12:21:43 0° 13° (NNE) 2,923 7.0 -13.5°
